Location: Cornospital
(48.0620°N, 3.3837°W)
Time: 20:48:41
(UTC+00:00)

Cosmos 2233 Rocket - Pass Details

Date: 17 June 2021
Orbit: 954 x 990 km, 82.9° (Epoch: 02 August)

Event Time Altitude Azimuth Distance (km) Brightness Sun altitude
Rises 22:04:19 0° 353° (N) 3,644 8.3 -12.8°
Reaches altitude 10° 22:06:52 10° 357° (N) 2,696 7.4 -13.0°
Maximum altitude 22:12:58 60° 77° (ENE) 1,091 4.2 -13.5°
Enters shadow 22:17:22 19° 153° (SSE) 2,095 5.1 -13.8°
